Theta_e
295 295 295 295 296 296 296 296 296 297 298 298 299 300 300 301 301 302 303 306 307 309 310 309 309 310 311 311 311 311 310 311 309 311 300 295 292 293 291 291 290 292 294
293 293 292 293 293 293 292 293 293 293 293 294 295 295 295 296 296 297 297 298 299 299 302 302 304 306 305 306 306 306 306 307 306 305 298 292 292 290 290 289 289 290 290
290 289 289 289 289 289 289 290 290 290 290 291 291 291 292 292 292 292 293 293 294 296 297 297 299 299 299 301 302 301 302 302 301 300 300 289 288 287 286 286 286 286 288
287 286 286 286 286 286 287 287 287 288 288 288 288 288 288 288 289 289 290 290 290 291 293 293 294 295 295 296 296 296 296 295 294 294 292 289 287 286 286 284 282 284 285
284 283 283 283 284 284 284 285 285 285 285 286 286 286 286 287 288 288 288 288 287 288 288 289 290 289 289 291 293 293 293 293 292 292 291 288 285 283 283 285 285 283 283
281 280 281 281 281 281 282 282 282 283 283 283 283 283 283 285 288 290 289 286 286 285 285 286 286 285 286 290 291 292 292 291 291 290 291 290 290 286 285 285 284 280 279
280 280 279 279 279 280 280 280 280 280 281 281 281 281 281 282 287 288 288 285 284 284 283 283 284 284 283 284 286 288 288 290 293 291 289 289 289 288 286 284 284 283 284
278 278 278 278 278 279 279 279 278 279 279 279 280 280 280 281 286 286 287 283 282 282 282 282 282 282 282 283 283 283 283 283 284 287 288 288 288 287 287 287 285 283 279
278 277 277 277 277 277 277 276 277 278 278 278 280 279 279 279 284 285 285 282 282 281 282 282 281 281 284 286 283 282 282 282 285 287 288 289 289 289 288 283 281 279 278
277 277 276 276 276 275 275 276 277 277 278 278 278 279 278 278 282 284 284 282 281 281 282 282 283 282 286 286 283 282 280 281 281 279 279 281 283 283 288 284 283 280 280
276 276 275 275 275 275 275 276 276 276 276 275 276 276 277 277 279 283 284 282 281 281 281 280 281 284 285 286 286 283 282 284 283 279 276 274 275 277 276 278 280 281 275
273 273 272 272 274 275 274 274 274 274 273 273 273 274 275 276 279 282 284 284 283 281 280 280 280 284 285 286 285 286 287 286 282 277 274 271 272 272 273 275 276 276 276
270 268 268 270 273 274 272 273 271 271 270 271 272 273 274 277 276 281 282 283 283 281 281 282 284 284 284 284 284 285 283 281 280 275 276 275 273 274 273 272 272 272 273
266 268 269 269 270 270 272 272 270 269 269 272 272 273 275 276 276 277 279 280 281 281 282 281 282 283 284 283 280 281 280 279 277 276 277 276 273 272 271 272 270 270 269
268 268 268 268 267 268 269 269 271 272 273 272 273 274 275 275 277 280 280 279 280 280 280 279 278 278 278 278 275 276 276 275 274 275 276 273 272 272 271 271 270 269 267
266 266 266 266 265 267 267 268 272 275 277 278 278 278 277 279 279 280 280 281 281 281 278 276 275 276 276 277 275 275 272 273 274 275 274 274 272 271 271 270 270 268 267
265 267 266 266 266 265 265 265 265 269 273 275 276 276 276 277 278 278 278 279 279 278 272 271 271 272 273 274 276 275 275 275 274 274 274 274 273 272 271 270 269 268 267
260 262 263 263 263 262 263 263 263 263 264 265 270 272 274 275 275 276 277 276 268 269 265 268 269 271 272 272 273 274 275 275 273 272 273 274 273 272 270 270 269 268 268
260 260 260 259 259 260 260 260 260 260 261 263 264 268 267 272 273 274 274 263 266 266 267 268 269 269 270 271 271 271 273 275 275 273 273 273 273 272 271 270 269 269 268
257 259 258 257 257 257 257 258 258 258 260 261 262 263 264 265 266 267 266 265 264 265 266 266 266 267 268 268 268 268 269 271 273 273 272 273 273 271 271 270 269 268 267
256 255 257 255 254 255 255 256 258 259 260 261 262 263 270 267 264 263 263 264 264 265 265 265 265 266 266 267 266 266 267 269 271 273 272 272 272 270 271 271 269 268 268
255 254 253 253 254 255 255 256 257 258 259 259 261 262 268 262 262 262 262 263 264 264 265 265 264 265 265 266 266 266 266 267 268 270 271 271 271 270 270 269 269 268 267
254 254 253 253 253 254 254 253 255 256 258 258 259 260 260 260 261 261 262 262 263 263 264 264 264 264 265 265 265 266 265 266 267 269 269 270 270 269 269 268 267 266 266
256 256 255 258 256 252 251 253 253 255 256 257 257 258 259 259 260 260 261 262 262 263 263 263 264 263 264 264 264 265 265 266 266 267 268 268 269 268 267 267 266 266 265
253 258 257 257 251 250 250 251 253 254 254 255 257 258 259 259 260 260 261 261 262 262 262 263 263 262 262 261 261 262 263 264 265 266 267 267 267 267 266 266 265 264 264
258 258 256 251 250 249 249 251 253 252 253 255 257 258 258 259 260 260 261 261 261 261 261 261 261 260 259 260 261 262 263 266 266 266 267 266 266 265 265 264 264 263 263
Wind_Speed
6 6 7 6 6 6 5 5 6 6 7 6 6 6 7 7 7 6 5 6 6 6 4 4 6 5 6 5 6 5 7 5 8 5 2 2 3 5 4 4 2 4 3
6 7 9 9 8 7 6 6 6 5 5 6 6 7 7 6 6 5 5 5 4 5 6 6 7 4 6 5 4 6 6 5 5 12 2 2 3 2 2 5 4 5 3
9 8 8 8 8 8 8 7 6 6 6 6 5 5 6 6 5 5 5 6 6 5 5 5 6 6 7 5 4 5 5 4 3 5 6 2 2 2 2 2 3 3 4
8 8 9 8 7 7 7 7 7 6 6 6 6 6 6 6 6 6 7 6 6 6 5 5 6 6 7 7 6 6 5 4 3 4 5 4 3 3 4 4 5 6 6
7 7 7 5 5 5 5 5 6 6 7 7 7 7 7 6 5 8 7 7 8 10 8 7 6 6 10 10 7 8 6 6 4 5 5 2 2 2 4 3 6 4 6
7 7 6 6 6 6 6 6 7 7 8 7 8 7 7 5 13 14 10 7 6 6 9 9 6 7 8 12 13 13 10 8 9 6 7 8 9 4 3 3 3 2 4
6 6 6 5 5 6 6 6 6 5 5 5 5 6 7 7 14 15 14 6 7 7 7 8 8 5 6 7 11 14 12 14 16 11 13 10 10 4 5 5 7 6 6
4 4 4 5 6 5 5 5 5 4 5 6 6 6 6 6 14 15 14 5 5 6 6 8 7 7 6 10 10 10 9 6 8 7 11 11 9 4 7 7 9 5 2
4 4 6 5 4 5 5 5 4 4 4 4 5 6 5 6 13 15 13 6 7 7 7 6 7 7 12 17 10 11 11 10 7 14 17 17 17 16 10 2 4 5 5
5 4 4 5 5 6 5 6 4 4 7 7 9 7 8 9 14 17 15 7 9 8 8 6 8 8 18 19 11 10 12 11 7 5 5 8 9 8 14 9 5 9 4
2 4 4 4 5 5 5 4 6 7 7 7 9 9 8 7 10 16 16 7 6 9 8 8 7 18 20 20 20 10 11 13 11 6 4 2 2 2 2 2 2 6 4
1 2 3 4 4 4 4 4 4 5 5 6 7 8 4 5 9 13 18 17 18 11 11 8 9 19 23 22 19 19 21 18 6 3 2 2 2 2 1 1 1 1 2
1 3 3 3 3 3 3 5 3 3 3 5 4 6 8 6 3 13 17 18 18 13 11 17 26 26 25 18 18 20 16 7 6 4 7 6 5 4 4 2 1 2 2
3 3 2 2 3 3 3 4 3 2 3 4 4 6 7 8 7 5 7 10 15 13 16 12 16 22 22 19 10 10 7 7 7 8 8 6 3 4 4 4 3 3 2
2 1 3 2 2 3 4 4 4 4 5 5 5 4 8 9 9 18 17 12 11 15 18 11 10 10 10 8 7 7 6 6 7 7 7 5 5 5 6 5 4 4 4
2 2 2 2 1 3 4 6 8 12 13 14 16 12 6 15 19 22 23 24 24 25 11 10 10 10 11 11 9 9 5 7 8 7 7 7 7 7 7 5 4 6 7
4 3 1 2 2 2 3 4 9 7 11 11 10 13 15 17 20 21 22 23 23 19 7 9 9 10 10 11 10 9 10 7 8 7 8 8 7 7 7 6 6 6 6
1 2 1 2 3 2 2 2 2 4 9 10 10 13 16 17 20 22 21 17 7 7 4 8 9 9 9 10 11 11 10 9 6 7 9 8 8 8 6 6 8 8 7
3 3 3 2 2 2 2 2 2 2 5 7 10 14 6 19 21 17 17 3 7 8 8 8 8 9 10 9 9 12 14 11 9 8 8 8 8 8 8 8 8 11 10
4 4 3 2 2 1 1 2 2 3 4 6 7 7 7 8 8 9 7 7 7 7 8 8 8 8 9 9 9 10 12 12 12 8 8 9 7 8 8 8 8 8 9
4 3 3 1 1 1 2 2 3 4 6 6 7 7 19 10 8 8 8 7 8 8 9 9 9 9 9 9 9 10 12 12 12 11 8 8 8 7 8 8 8 8 7
4 3 2 2 1 2 2 3 3 4 6 6 7 8 19 6 7 7 8 8 8 8 8 9 9 9 9 9 10 11 11 12 11 12 10 9 8 7 7 7 7 7 7
4 4 3 2 2 3 2 3 3 4 6 6 6 7 6 6 7 8 8 9 9 9 8 8 9 9 9 9 9 10 11 11 11 11 13 10 8 7 7 8 7 7 7
4 4 3 2 2 2 2 3 3 5 5 6 6 6 7 7 8 9 9 9 9 9 9 9 9 12 11 11 10 10 10 11 10 12 15 11 10 7 7 7 6 8 7
3 3 2 2 2 2 2 3 4 5 5 5 6 6 7 8 9 9 9 9 9 10 10 9 9 13 13 15 15 17 16 18 15 16 10 12 12 10 8 7 6 6 6
3 3 2 1 1 2 2 3 4 4 4 5 6 7 8 9 9 9 10 10 9 10 12 10 11 13 14 13 15 17 18 19 17 17 12 9 9 7 6 7 8 6 7
Wind_Direction
61 66 82 55 53 58 56 45 18 10 3 11 8 13 15 5 12 6 357 351 346 338 331 339 313 326 313 316 314 306 295 308 297 300 352 23 166 191 198 231 183 220 233
65 55 51 42 35 38 32 22 19 18 2 3 5 15 9 4 357 1 349 338 332 323 328 327 316 314 295 281 271 284 286 289 285 293 74 213 212 188 169 194 194 220 183
55 53 49 40 35 32 23 12 15 12 10 6 7 9 351 343 340 341 334 325 320 307 294 292 291 305 299 295 282 281 271 266 244 275 289 196 149 164 146 168 212 223 180
59 53 49 37 24 23 10 13 14 6 10 360 356 360 356 341 342 346 337 330 319 305 300 301 294 295 297 302 297 272 274 267 247 240 234 212 181 187 182 190 200 203 199
64 60 46 31 26 23 16 6 5 13 6 358 354 357 356 347 342 337 332 324 329 324 325 322 314 317 303 292 300 303 296 284 278 266 270 263 245 203 216 198 229 194 211
55 48 35 26 17 11 4 1 9 4 358 359 356 349 342 332 331 333 337 319 320 312 318 320 312 299 293 301 296 282 269 276 276 270 270 248 250 217 186 187 191 175 257
51 37 28 10 358 1 353 355 359 347 330 331 328 333 333 332 330 329 332 328 316 310 310 304 302 289 294 290 292 286 274 264 256 259 262 258 274 217 170 186 202 203 224
71 51 25 13 358 343 342 346 339 332 341 338 332 323 307 301 323 327 323 303 295 283 268 273 283 303 304 312 308 301 291 263 253 258 259 269 264 259 207 212 210 206 108
48 29 17 356 327 343 341 344 336 329 308 291 296 300 300 300 327 333 337 319 311 304 298 309 317 308 301 311 306 297 301 290 265 265 267 273 275 273 248 161 186 178 222
23 353 338 347 343 335 327 325 314 323 320 327 320 320 319 321 332 337 340 331 326 322 320 311 302 308 315 316 312 311 300 299 299 285 274 279 286 268 253 213 206 221 221
348 339 344 339 326 314 319 322 327 330 328 326 320 321 315 315 321 332 332 326 323 321 322 325 321 318 319 317 306 291 282 294 285 275 265 285 310 333 3 93 229 220 195
250 328 323 317 320 321 323 316 316 311 314 309 296 299 283 292 306 326 333 333 325 320 313 310 300 305 310 310 308 289 293 301 301 255 233 251 249 252 248 273 298 274 309
182 275 264 293 304 318 317 309 301 282 287 296 303 315 321 327 306 326 327 322 320 315 309 306 308 308 303 301 293 294 296 284 276 246 245 237 211 201 154 164 76 42 4
218 265 317 277 308 293 281 286 277 263 279 291 307 311 318 319 324 322 308 320 318 314 314 307 301 303 294 286 287 285 273 274 258 259 255 247 175 173 196 187 184 175 183
222 261 254 249 275 287 275 283 293 274 277 294 293 292 313 316 314 314 319 319 314 310 315 309 306 305 302 294 268 263 264 271 264 256 248 223 214 209 214 196 198 181 199
230 251 244 243 274 332 329 316 308 302 309 309 308 306 308 310 313 311 311 313 312 311 307 305 305 302 302 303 289 283 257 256 259 257 249 236 224 219 220 197 194 202 216
232 250 334 353 345 313 317 322 326 321 310 311 312 319 318 308 313 316 314 312 312 322 314 303 299 302 304 304 301 286 285 268 260 258 253 247 234 225 213 207 207 197 210
306 312 239 226 233 245 263 286 283 302 321 321 319 320 319 325 321 319 316 324 325 311 279 291 298 299 300 305 304 298 290 282 255 251 257 253 237 228 212 213 207 210 208
212 228 213 211 239 263 284 286 271 279 279 285 308 318 324 324 322 318 325 318 307 309 307 302 304 309 306 303 326 321 313 288 275 263 256 256 240 226 227 219 215 211 204
220 231 205 201 227 263 270 283 292 273 283 284 289 289 310 313 320 329 327 316 307 301 301 300 301 300 302 304 307 306 305 301 293 268 257 261 247 228 233 220 212 207 208
187 191 186 142 240 258 252 255 262 277 282 284 288 295 308 320 317 307 304 304 304 303 303 303 304 303 302 302 301 301 299 297 296 288 266 263 252 236 234 229 216 213 206
168 171 151 186 234 273 259 255 264 268 277 281 291 293 311 307 294 294 295 294 294 293 295 297 298 298 300 300 301 299 298 299 303 307 284 266 257 239 235 229 217 208 202
146 153 172 208 215 243 252 245 263 265 277 278 281 290 292 289 291 295 297 298 296 293 292 294 295 296 294 293 295 294 294 299 301 300 301 285 261 241 231 227 216 205 198
162 175 184 221 253 245 261 280 264 260 265 278 280 284 289 292 291 291 292 295 297 298 298 297 296 295 298 296 295 293 293 294 293 293 295 286 281 247 232 226 215 211 201
162 181 194 232 244 265 284 270 275 271 272 272 284 288 292 294 295 295 295 295 296 297 297 294 297 294 291 292 291 291 288 292 287 284 284 281 271 250 232 223 212 202 190
172 184 178 169 239 260 255 273 278 282 286 290 296 299 298 297 295 296 299 298 298 298 298 294 292 289 290 290 292 293 297 298 297 288 273 268 264 247 227 218 202 195 188